Powrót do katalogu

DELTA 1 DEB

AktywnyLEO
NORAD 42087·DEBRIS·🇺🇸 United States

Wystrzelony Dec 15, 1968 z Vandenberg Space Force Base

Loading…

Następne Przeloty (najbliższe 24 godziny)

TLE

Starzejące sięSource: Space-Track

Epoka: Sep 10, 2026, 01:42 UTC

1 42087U 68114P   26253.07146064  .00000708  00000-0  55601-2 0  9991
2 42087 101.4329 197.6855 0191283 176.4350 183.8125 12.35780276576641

Śledź DELTA 1 DEB w czasie rzeczywistym z AllMySat

Download on the App Store